Weather History for Monticello, KY

Change the Weather History Date:

Sunday, December 15, 2013

  Actual Average Record
Temperature  
Mean Temperature 32 °F -  
Max Temperature 35 °F 49 °F 70 °F (1971)
Min Temperature 30 °F 29 °F -2 °F (2010)
Degree Days  
Heating Degree Days 32    
Moisture  
Dew Point 28 °F    
Average Humidity 88    
Maximum Humidity 96    
Minimum Humidity 82    
Precipitation  
Precipitation 0.00 in - - ()
Sea Level Pressure  
Sea Level Pressure 30.14 in    
Wind  
Wind Speed 12 mph (West)    
Max Wind Speed 16 mph    
Max Gust Speed -    
Visibility 7 miles    
Events      
Averages and records for this station are not official NWS values.
T = Trace of Precipitation, MM = Missing Value Source: NWS Daily Summary

Daily Weather History Graph

Daily Weather History Graph

Search for Another Location

Airport:

Trip Planner

Search our weather history database for the weather conditions in past years. The results will help you decide how hot, cold, wet, or windy it might be!

Date:

Astronomy

Dec. 15, 2013 Rise Set
Actual Time 6:45 AM CST 4:24 PM CST
Civil Twilight 6:16 AM CST 4:53 PM CST
Nautical Twilight 5:43 AM CST 5:25 PM CST
Astronomical Twilight 5:12 AM CST 5:57 PM CST
Moon 3:26 PM CST (12/15) 5:02 AM CST (12/15)
Length of Visible Light 10h 37m
Length of Day
9h 39m
Waxing Gibbous, 98% of the Moon is Illuminated
Dec 15
Waxing Gibbous
Dec 17
Full
Dec 25
Last Quarter
Jan 1
New
Jan 7
First Quarter

Hourly Weather History & Observations

Time (CST) Temp. Windchill Dew Point Humidity Pressure Visibility Wind Dir Wind Speed Gust Speed Precip Events Conditions
12:24 AM 35.6 °F 26.2 °F 33.8 °F 93% 29.95 in 9.0 mi WNW 15.0 mph - N/A   Overcast
12:56 AM 34.9 °F 25.7 °F 32.9 °F 92% 29.99 in 7.0 mi WNW 13.8 mph - N/A   Overcast
1:56 AM 34.0 °F 24.6 °F 32.9 °F 96% 30.01 in 7.0 mi WNW 13.8 mph - 0.00 in   Overcast
2:56 AM 32.9 °F 24.1 °F 32.0 °F 96% 30.04 in 6.0 mi NW 11.5 mph - N/A   Overcast
3:27 AM 33.8 °F 24.3 °F 32.0 °F 93% 30.02 in 3.0 mi NW 13.8 mph - 0.00 in   Overcast
3:41 AM 32.0 °F 22.5 °F 30.2 °F 93% 30.02 in 7.0 mi NW 12.7 mph - 0.00 in   Overcast
3:56 AM 32.0 °F 23.0 °F 31.1 °F 96% 30.06 in 6.0 mi NW 11.5 mph - 0.00 in   Overcast
4:19 AM 32.0 °F 24.2 °F 30.2 °F 93% 30.03 in 9.0 mi NW 9.2 mph - N/A   Overcast
4:56 AM 32.0 °F 22.5 °F 30.0 °F 92% 30.07 in 7.0 mi WNW 12.7 mph - N/A   Overcast
5:56 AM 32.0 °F 24.8 °F 28.0 °F 85% 30.10 in 10.0 mi NW 8.1 mph - N/A   Overcast
6:11 AM 32.0 °F 24.8 °F 28.4 °F 87% 30.07 in 8.0 mi WNW 8.1 mph - N/A   Overcast
6:56 AM 32.0 °F 23.6 °F 30.0 °F 92% 30.13 in 6.0 mi West 10.4 mph - N/A   Overcast
7:25 AM 32.0 °F 23.0 °F 30.2 °F 93% 30.10 in 2.5 mi WNW 11.5 mph - 0.00 in   Overcast
7:46 AM 32.0 °F 23.6 °F 30.2 °F 93% 30.12 in 4.0 mi WNW 10.4 mph - 0.00 in   Overcast
7:56 AM 32.0 °F 23.0 °F 29.1 °F 89% 30.16 in 5.0 mi WNW 11.5 mph - 0.00 in   Overcast
8:56 AM 31.1 °F 20.1 °F 28.0 °F 88% 30.19 in 6.0 mi WNW 16.1 mph - N/A   Overcast
9:32 AM 30.2 °F 20.8 °F 26.6 °F 86% 30.16 in 7.0 mi West 11.5 mph - 0.00 in   Overcast
9:56 AM 31.1 °F 21.9 °F 28.0 °F 88% 30.20 in 5.0 mi WNW 11.5 mph - 0.00 in   Overcast
10:56 AM 31.1 °F 21.9 °F 27.1 °F 85% 30.20 in 6.0 mi West 11.5 mph - N/A   Overcast
11:17 AM 30.2 °F 21.3 °F 26.6 °F 86% 30.15 in 8.0 mi WNW 10.4 mph - N/A   Overcast
11:29 AM 30.2 °F 20.8 °F 26.6 °F 86% 30.15 in 9.0 mi West 11.5 mph - N/A   Overcast
11:49 AM 30.2 °F 21.3 °F 26.6 °F 86% 30.15 in 10.0 mi WNW 10.4 mph - N/A   Overcast
11:56 AM 31.1 °F 23.1 °F 27.1 °F 85% 30.19 in 10.0 mi WNW 9.2 mph - N/A   Overcast
12:14 PM 30.2 °F 23.4 °F 26.6 °F 86% 30.14 in 8.0 mi West 6.9 mph - N/A   Overcast
12:56 PM 30.0 °F 20.5 °F 27.1 °F 89% 30.17 in 6.0 mi WSW 11.5 mph - N/A   Overcast
1:56 PM 31.1 °F 21.9 °F 26.1 °F 82% 30.18 in 10.0 mi West 11.5 mph - N/A   Overcast
2:56 PM 31.1 °F 24.5 °F 27.1 °F 85% 30.20 in 8.0 mi WSW 6.9 mph - N/A   Overcast
3:37 PM 30.2 °F 20.8 °F 28.4 °F 93% 30.18 in 6.0 mi West 11.5 mph - N/A   Overcast
3:56 PM 30.0 °F 20.5 °F 27.1 °F 89% 30.23 in 4.0 mi West 11.5 mph - N/A   Overcast
4:20 PM 30.2 °F 21.3 °F 26.6 °F 86% 30.19 in 7.0 mi WSW 10.4 mph - N/A   Overcast
4:56 PM 30.0 °F 23.2 °F 26.1 °F 85% 30.24 in 8.0 mi SW 6.9 mph - N/A   Overcast
5:56 PM 30.0 °F 21.7 °F 26.1 °F 85% 30.24 in 9.0 mi SW 9.2 mph - N/A   Overcast
6:56 PM 30.0 °F 24.1 °F 26.1 °F 85% 30.24 in 10.0 mi SW 5.8 mph - N/A   Overcast
7:56 PM 31.1 °F 22.4 °F 26.1 °F 82% 30.24 in 10.0 mi SSW 10.4 mph - N/A   Overcast
8:56 PM 31.1 °F 23.1 °F 26.1 °F 82% 30.23 in 10.0 mi SSW 9.2 mph - N/A   Overcast
9:56 PM 30.0 °F 23.2 °F 27.1 °F 89% 30.23 in 8.0 mi SW 6.9 mph - N/A   Overcast
10:56 PM 31.1 °F 25.4 °F 27.1 °F 85% 30.23 in 8.0 mi SW 5.8 mph - N/A   Overcast
11:18 PM 30.2 °F 21.9 °F 26.6 °F 86% 30.18 in 8.0 mi SW 9.2 mph - N/A   Overcast
11:56 PM 31.1 °F 22.4 °F 28.0 °F 88% 30.23 in 8.0 mi SW 10.4 mph - N/A   Overcast